• In Belarus
  • List of Countries
  • For 7 days
  • Water Temperature
  • Weather Map
  • Weather Widgets
  • user-avatar
    Login

    Hourly Weather San Luis

    Today, 17 February, Monday

    Time Temperature Precipitation Wind Pressure Humidity
    00:00 +28°C° 0 mm 3 mps 691 mmHg 63%
    01:00 +27°C° 0 mm 3 mps 690 mmHg 66%
    02:00 +27°C° 0 mm 4 mps 690 mmHg 68%
    03:00 +27°C° 0.2 mm 4 mps 690 mmHg 71%
    04:00 +26°C° 0.2 mm 3 mps 690 mmHg 73%
    05:00 +26°C° 0.2 mm 3 mps 689 mmHg 75%
    06:00 +27°C° 0.5 mm 4 mps 690 mmHg 72%
    07:00 +28°C° 0.5 mm 4 mps 690 mmHg 68%
    08:00 +29°C° 0.5 mm 5 mps 690 mmHg 64%
    09:00 +32°C° 0.9 mm 5 mps 691 mmHg 59%
    10:00 +33°C° 0.9 mm 5 mps 691 mmHg 54%
    11:00 +35°C° 0.9 mm 5 mps 692 mmHg 49%
    12:00 +34°C° 0.9 mm 6 mps 691 mmHg 50%
    13:00 +34°C° 0.9 mm 6 mps 691 mmHg 51%
    14:00 +33°C° 0.9 mm 7 mps 691 mmHg 52%
    15:00 +32°C° 0.2 mm 8 mps 691 mmHg 47%
    16:00 +32°C° 0.2 mm 9 mps 691 mmHg 41%
    17:00 +31°C° 0.2 mm 10 mps 692 mmHg 36%
    18:00 +28°C° 0.1 mm 9 mps 693 mmHg 38%
    19:00 +27°C° 0.1 mm 8 mps 694 mmHg 40%
    20:00 +24°C° 0.1 mm 7 mps 695 mmHg 42%
    21:00 +23°C° 0 mm 7 mps 696 mmHg 40%
    22:00 +22°C° 0 mm 7 mps 697 mmHg 37%
    23:00 +21°C° 0 mm 8 mps 698 mmHg 35%

    Tomorrow, 18 February, Tuesday

    Time Temperature Precipitation Wind Pressure Humidity
    00:00 +20°C° 0 mm 6 mps 698 mmHg 36%
    01:00 +19°C° 0 mm 5 mps 698 mmHg 37%
    02:00 +19°C° 0 mm 4 mps 698 mmHg 37%
    03:00 +18°C° 0 mm 3 mps 698 mmHg 35%
    04:00 +18°C° 0 mm 3 mps 698 mmHg 33%
    05:00 +17°C° 0 mm 2 mps 699 mmHg 30%
    06:00 +18°C° 0 mm 2 mps 699 mmHg 29%
    07:00 +20°C° 0 mm 3 mps 700 mmHg 28%
    08:00 +21°C° 0 mm 3 mps 700 mmHg 28%
    09:00 +24°C° 0 mm 3 mps 700 mmHg 24%
    10:00 +25°C° 0 mm 2 mps 701 mmHg 21%
    11:00 +27°C° 0 mm 2 mps 701 mmHg 18%
    12:00 +28°C° 0 mm 2 mps 700 mmHg 17%
    13:00 +29°C° 0 mm 2 mps 700 mmHg 16%
    14:00 +30°C° 0 mm 2 mps 699 mmHg 16%
    15:00 +31°C° 0 mm 2 mps 699 mmHg 16%
    16:00 +31°C° 0 mm 2 mps 698 mmHg 17%
    17:00 +31°C° 0 mm 2 mps 697 mmHg 18%
    18:00 +29°C° 0 mm 2 mps 697 mmHg 23%
    19:00 +27°C° 0 mm 2 mps 696 mmHg 27%
    20:00 +25°C° 0 mm 2 mps 696 mmHg 32%
    21:00 +24°C° 0 mm 2 mps 696 mmHg 32%
    22:00 +22°C° 0 mm 3 mps 696 mmHg 32%
    23:00 +22°C° 0 mm 3 mps 696 mmHg 32%

    Day after tomorrow, 19 February, Wednesday

    Time Temperature Precipitation Wind Pressure Humidity
    00:00 +22°C° 0 mm 4 mps 696 mmHg 38%
    01:00 +21°C° 0 mm 4 mps 695 mmHg 43%
    02:00 +21°C° 0 mm 5 mps 695 mmHg 49%
    03:00 +21°C° 0 mm 5 mps 695 mmHg 45%
    04:00 +21°C° 0 mm 5 mps 695 mmHg 41%
    05:00 +21°C° 0 mm 5 mps 695 mmHg 37%
    06:00 +23°C° 0 mm 5 mps 695 mmHg 36%
    07:00 +25°C° 0 mm 5 mps 696 mmHg 34%
    08:00 +27°C° 0 mm 5 mps 696 mmHg 33%
    09:00 +28°C° 0 mm 5 mps 696 mmHg 31%
    10:00 +30°C° 0 mm 4 mps 696 mmHg 29%
    11:00 +32°C° 0 mm 4 mps 696 mmHg 27%
    12:00 +33°C° 0 mm 4 mps 696 mmHg 26%
    13:00 +34°C° 0 mm 3 mps 696 mmHg 25%
    14:00 +35°C° 0 mm 3 mps 696 mmHg 24%
    15:00 +35°C° 0 mm 3 mps 695 mmHg 24%
    16:00 +35°C° 0 mm 2 mps 694 mmHg 24%
    17:00 +35°C° 0 mm 2 mps 694 mmHg 24%
    18:00 +31°C° 0 mm 2 mps 694 mmHg 30%
    19:00 +29°C° 0 mm 1 mps 694 mmHg 36%
    20:00 +26°C° 0 mm 1 mps 694 mmHg 41%
    21:00 +26°C° 0 mm 1 mps 695 mmHg 42%
    22:00 +25°C° 0 mm 1 mps 696 mmHg 43%
    23:00 +24°C° 0 mm 1 mps 697 mmHg 44%

    20 February, Thursday

    Time Temperature Precipitation Wind Pressure Humidity
    00:00 +22°C° 0 mm 3 mps 697 mmHg 42%
    01:00 +21°C° 0 mm 5 mps 697 mmHg 40%
    02:00 +20°C° 0 mm 7 mps 697 mmHg 38%
    03:00 +20°C° 0 mm 7 mps 697 mmHg 39%
    04:00 +19°C° 0 mm 6 mps 698 mmHg 39%
    05:00 +19°C° 0 mm 6 mps 698 mmHg 40%
    06:00 +18°C° 0 mm 7 mps 699 mmHg 41%
    07:00 +20°C° 0 mm 7 mps 700 mmHg 41%
    08:00 +21°C° 0 mm 8 mps 701 mmHg 41%
    09:00 +22°C° 0 mm 8 mps 701 mmHg 41%
    10:00 +24°C° 0 mm 8 mps 702 mmHg 40%
    11:00 +27°C° 0 mm 8 mps 702 mmHg 39%
    12:00 +28°C° 0 mm 9 mps 702 mmHg 37%
    13:00 +29°C° 0 mm 9 mps 702 mmHg 34%
    14:00 +31°C° 0 mm 10 mps 702 mmHg 32%
    15:00 +29°C° 0 mm 10 mps 701 mmHg 31%
    16:00 +28°C° 0 mm 10 mps 700 mmHg 31%
    17:00 +27°C° 0 mm 11 mps 700 mmHg 30%
    18:00 +26°C° 0 mm 10 mps 700 mmHg 30%
    19:00 +24°C° 0 mm 10 mps 701 mmHg 29%
    20:00 +23°C° 0 mm 10 mps 701 mmHg 28%
    21:00 +22°C° 0 mm 10 mps 701 mmHg 28%
    22:00 +21°C° 0 mm 9 mps 702 mmHg 29%
    23:00 +19°C° 0 mm 9 mps 702 mmHg 29%

    21 February, Friday

    Time Temperature Precipitation Wind Pressure Humidity
    00:00 +21°C° 0 mm 8 mps 702 mmHg 30%
    01:00 +21°C° 0 mm 8 mps 702 mmHg 30%
    02:00 +21°C° 0 mm 8 mps 702 mmHg 31%
    09:00 +21°C° 0 mm 5 mps 703 mmHg 38%
    10:00 +23°C° 0 mm 4 mps 704 mmHg 38%
    11:00 +25°C° 0 mm 3 mps 704 mmHg 38%
    12:00 +26°C° 0 mm 4 mps 703 mmHg 36%
    13:00 +27°C° 0 mm 4 mps 703 mmHg 35%
    14:00 +28°C° 0 mm 5 mps 703 mmHg 33%
    15:00 +28°C° 0 mm 5 mps 702 mmHg 35%
    16:00 +28°C° 0 mm 5 mps 701 mmHg 37%
    17:00 +28°C° 0 mm 5 mps 701 mmHg 39%
    18:00 +26°C° 0 mm 5 mps 701 mmHg 41%
    19:00 +25°C° 0 mm 5 mps 701 mmHg 43%
    20:00 +23°C° 0 mm 5 mps 701 mmHg 45%
    21:00 +23°C° 0 mm 4 mps 701 mmHg 48%
    22:00 +23°C° 0 mm 4 mps 701 mmHg 50%
    23:00 +24°C° 0 mm 3 mps 701 mmHg 52%

    22 February, Saturday

    Time Temperature Precipitation Wind Pressure Humidity
    00:00 +22°C° 0 mm 4 mps 701 mmHg 53%
    01:00 +22°C° 0 mm 4 mps 701 mmHg 53%
    02:00 +22°C° 0 mm 4 mps 700 mmHg 53%
    03:00 +21°C° 0 mm 5 mps 700 mmHg 52%
    04:00 +20°C° 0 mm 5 mps 700 mmHg 51%
    05:00 +20°C° 0 mm 6 mps 700 mmHg 50%
    06:00 +21°C° 0 mm 6 mps 700 mmHg 47%
    07:00 +22°C° 0 mm 6 mps 700 mmHg 43%
    08:00 +23°C° 0 mm 7 mps 701 mmHg 40%
    09:00 +24°C° 0 mm 7 mps 701 mmHg 38%
    10:00 +26°C° 0 mm 6 mps 701 mmHg 35%
    11:00 +28°C° 0 mm 6 mps 701 mmHg 33%
    12:00 +29°C° 0 mm 6 mps 700 mmHg 32%
    13:00 +30°C° 0 mm 6 mps 700 mmHg 31%
    14:00 +32°C° 0 mm 5 mps 700 mmHg 30%
    15:00 +32°C° 0 mm 5 mps 699 mmHg 31%
    16:00 +32°C° 0 mm 5 mps 698 mmHg 31%
    17:00 +30°C° 0 mm 5 mps 697 mmHg 31%
    18:00 +28°C° 0 mm 4 mps 697 mmHg 36%
    19:00 +26°C° 0 mm 4 mps 697 mmHg 40%
    20:00 +23°C° 0 mm 4 mps 697 mmHg 44%
    21:00 +23°C° 0 mm 4 mps 697 mmHg 44%
    22:00 +22°C° 0 mm 5 mps 697 mmHg 44%
    23:00 +22°C° 0 mm 5 mps 697 mmHg 44%
    Show more